Юкта

Россия / Красноярский край     63°26′57″N   105°46′05″E
темп.,
°C
ветер,
м/с
пор.,
м/с
влажн.,
%
обл.,
%
осадки,
мм/ч
давл.,
гПа
погр.,
м
15 мая, сб
сб1501:00+4ссз1191100 0.0 100210
04:00+4сз1292100 0.0 100182
07:00+2ссз2398100 4.3 999274
10:00+2сз1297100 3.1 998189
13:00+4ююз2592100 3.5 996723
16:00+2з4891100 2.6 997680
19:00+2з3695100 3.3 997426
22:000зсз41081100 1.1 997889
16 мая, вс
вс1601:00−2зсз6109084 1.1 998629
04:00−5сз81488100 0.2 1000833
07:00−5сз81488100 1.3 1002939
10:00−3сз81274100 0.8 10041166
13:00−2ссз71059100 0.8 10071538
16:00−2ссз71058100 0.1 10081796
19:00−3ссз595999 0.1 10101545
22:00−7сз26775 0.0 1011129
17 мая, пн
пн1701:00−8сз38763 0.0 1011368
04:00−7сз48690 0.0 1011752
07:00−5ссз6949100 0.0 10111637
10:00−3ссз6844100 0.0 10102074
13:00−2ссз6842100 0.1 10102225
16:00−1ссз6846100 0.1 10112106
19:00−2ссз595299 0.1 10111666
22:00−5сз41064100 0.1 1011617
18 мая, вт
вт1801:00−5сз5966100 0.1 1010784
04:00−6сз61064100 0.0 10101013
07:00−5сз61076100 0.1 10101178
10:00−4сз71077100 0.7 10081279
13:00−2сз71064100 1.2 10071678
16:00−2ссз6862100 0.3 10061460
19:00−2сз4874100 0.5 10061072
22:00−5сз389374 0.1 1006408
19 мая, ср
ср1901:00−5зсз259699 0.3 1005218
04:00−4зсз279297 0.1 1005377
07:00−2ссз4984100 0.5 1004768
10:00−1с5881100 0.6 1004918
13:00+1с5983100 1.2 10041034
16:00+3с697196 0.4 10051238
19:00+1с5107882 0.4 10071014
22:00−1с4108568 0.0 1008559